Overview Statistics Trail Chart Weather Telemetry Raw packets
 

This is the latest recevied weather packets stored in our database for station/object IU5JAE-13. If no packets are shown the sender has not sent any weather packets the latest 10 day(s).

<< 20 21 22 23 24 25 26 >>
Time Temp. Humidity Pressure Rain* Wind** Luminosity Snow
1788399316 20° C 87% 1020.2 hPa 0 mm - 0 W/m² -
1788398734 19.44° C 87% 1020.3 hPa 0 mm - 0 W/m² -
1788398131 20° C 86% 1020.2 hPa 0 mm - 0 W/m² -
1788397529 19.44° C 90% 1020.3 hPa 0 mm - 0 W/m² -
1788396926 19.44° C 90% 1020.2 hPa 0 mm - 0 W/m² -
1788396324 19.44° C 90% 1020.3 hPa 0 mm - 0 W/m² -
1788395722 19.44° C 90% 1020.1 hPa 0 mm - 0 W/m² -
1788395119 19.44° C 90% 1020.2 hPa 0 mm - 0 W/m² -
1788394517 20° C 88% 1020.1 hPa 0 mm - 0 W/m² -
1788393934 20° C 88% 1020.1 hPa 0 mm - 0 W/m² -
1788393332 20° C 88% 1020 hPa 0 mm - 0 W/m² -
1788392730 20° C 87% 1020.1 hPa 0 mm - 0 W/m² -
1788392127 20° C 89% 1020.2 hPa 0 mm - 0 W/m² -
1788391525 20° C 89% 1020.3 hPa 0 mm - 0 W/m² -
1788390922 20° C 89% 1020.4 hPa 0 mm - 0 W/m² -
1788390320 20° C 88% 1020.4 hPa 0 mm - 0 W/m² -
1788389718 20.56° C 88% 1020.3 hPa 0 mm - 0 W/m² -
1788389135 20.56° C 88% 1020.3 hPa 0 mm - 0 W/m² -
1788388533 20° C 90% 1020.3 hPa 0.25 mm - 0 W/m² -
1788387930 20° C 90% 1020.4 hPa 0.25 mm - 0 W/m² -
1788387328 20.56° C 89% 1020.2 hPa 0.25 mm - 0 W/m² -
1788386725 20.56° C 88% 1020.3 hPa 0.25 mm - 0 W/m² -
1788386123 20.56° C 88% 1020.2 hPa 0 mm - 0 W/m² -
1788385521 20.56° C 89% 1020.2 hPa 0 mm - 0 W/m² -
1788384918 20.56° C 88% 1020.2 hPa 0 mm - 0 W/m² -

* Rain latest hour (hover to see other rain measurements)
** Current wind speed in m/s (hover to see current wind gust speed)